Time,TemperatureF,DewpointF,PressureIn,WindDirection,WindDirectionDegrees,WindSpeedMPH,WindSpeedGustMPH,Humidity,HourlyPrecipIn,Conditions,Clouds,dailyrainin,SoftwareType,DateUTC
2013-05-21 00:01:00,77.9,70.5,29.71,SE,130,4.0,4.0,78,0.00,CLR,,0.00,WeatherDisplay:10.37,2013-05-21 05:01:00,
2013-05-21 00:06:00,77.7,70.3,29.71,SSE,160,3.5,0.0,78,0.00,CLR,,0.00,WeatherDisplay:10.37,2013-05-21 05:06:00,
2013-05-21 00:11:00,77.4,70.0,29.71,SSE,164,3.5,0.0,78,0.00,CLR,,0.00,WeatherDisplay:10.37,2013-05-21 05:11:00,
2013-05-21 00:16:00,77.4,70.0,29.71,West,263,3.6,3.6,78,0.00,CLR,,0.00,WeatherDisplay:10.37,2013-05-21 05:16:00,
2013-05-21 00:21:00,77.5,70.1,29.71,WSW,248,5.8,6.7,78,0.00,CLR,,0.00,WeatherDisplay:10.37,2013-05-21 05:21:00,
2013-05-21 00:26:00,77.7,70.3,29.71,WSW,248,8.1,8.1,78,0.00,CLR,,0.00,WeatherDisplay:10.37,2013-05-21 05:26:00,
2013-05-21 00:31:00,78.1,70.3,29.71,WSW,244,8.1,8.1,77,0.00,CLR,,0.00,WeatherDisplay:10.37,2013-05-21 05:31:00,
2013-05-21 00:36:00,78.1,70.3,29.71,West,268,8.1,8.1,77,0.00,CLR,,0.00,WeatherDisplay:10.37,2013-05-21 05:36:00,
2013-05-21 00:41:00,78.1,69.9,29.71,WSW,250,5.8,5.8,76,0.00,CLR,,0.00,WeatherDisplay:10.37,2013-05-21 05:41:00,
2013-05-21 00:46:00,77.9,69.7,29.71,West,272,5.8,6.7,76,0.00,CLR,,0.00,WeatherDisplay:10.37,2013-05-21 05:46:00,
2013-05-21 00:51:00,78.1,69.9,29.71,WSW,258,9.2,9.2,76,0.00,CLR,,0.00,WeatherDisplay:10.37,2013-05-21 05:51:00,
2013-05-21 00:56:00,77.9,70.1,29.68,West,264,3.5,3.5,77,0.00,CLR,,0.00,WeatherDisplay:10.37,2013-05-21 05:56:00,
2013-05-21 01:01:00,77.7,69.9,29.68,WSW,238,5.8,5.8,77,0.00,CLR,,0.00,WeatherDisplay:10.37,2013-05-21 06:01:00,
2013-05-21 01:06:00,77.5,69.8,29.68,ESE,117,5.8,5.8,77,0.00,CLR,,0.00,WeatherDisplay:10.37,2013-05-21 06:06:00,
2013-05-21 01:11:00,77.4,70.0,29.68,SSE,162,3.5,3.5,78,0.00,CLR,,0.00,WeatherDisplay:10.37,2013-05-21 06:11:00,
2013-05-21 01:16:00,77.0,69.6,29.68,SE,144,6.9,6.9,78,0.00,CLR,,0.00,WeatherDisplay:10.37,2013-05-21 06:16:00,
2013-05-21 01:21:00,76.6,69.6,29.68,SSE,155,3.5,4.0,79,0.00,CLR,,0.00,WeatherDisplay:10.37,2013-05-21 06:21:00,
2013-05-21 01:26:00,76.5,69.8,29.68,SE,128,3.5,3.5,80,0.00,CLR,,0.00,WeatherDisplay:10.37,2013-05-21 06:26:00,
2013-05-21 01:31:00,76.5,69.8,29.68,WSW,256,5.8,5.8,80,0.00,CLR,,0.00,WeatherDisplay:10.37,2013-05-21 06:31:00,
2013-05-21 01:36:00,76.3,70.0,29.68,WSW,237,3.5,3.5,81,0.00,CLR,,0.00,WeatherDisplay:10.37,2013-05-21 06:36:00,
2013-05-21 01:41:00,76.3,70.0,29.68,SE,131,5.8,5.8,81,0.00,CLR,,0.00,WeatherDisplay:10.37,2013-05-21 06:41:00,
2013-05-21 01:46:00,76.3,70.4,29.68,WSW,258,10.4,10.4,82,0.00,CLR,,0.00,WeatherDisplay:10.37,2013-05-21 06:46:00,
2013-05-21 01:52:00,76.1,70.2,29.68,West,261,5.8,5.8,82,0.00,CLR,,0.00,WeatherDisplay:10.37,2013-05-21 06:52:00,
2013-05-21 01:56:00,76.1,70.2,29.68,SSE,166,3.5,3.6,82,0.00,CLR,,0.00,WeatherDisplay:10.37,2013-05-21 06:56:00,
2013-05-21 02:02:00,76.1,70.2,29.68,WSW,253,3.5,3.6,82,0.00,CLR,,0.00,WeatherDisplay:10.37,2013-05-21 07:02:00,
2013-05-21 02:07:00,76.1,70.2,29.68,WSW,245,10.4,10.4,82,0.00,CLR,,0.00,WeatherDisplay:10.37,2013-05-21 07:07:00,
2013-05-21 02:12:00,76.1,70.2,29.71,SW,236,5.8,5.8,82,0.00,CLR,,0.00,WeatherDisplay:10.37,2013-05-21 07:12:00,
2013-05-21 02:17:00,76.1,70.6,29.71,SE,141,4.6,4.9,83,0.00,CLR,,0.00,WeatherDisplay:10.37,2013-05-21 07:17:00,
2013-05-21 02:22:00,76.1,70.2,29.71,SSW,206,4.6,4.6,82,0.00,CLR,,0.00,WeatherDisplay:10.37,2013-05-21 07:22:00,
2013-05-21 02:27:00,76.1,70.6,29.71,South,182,3.6,3.6,83,0.00,CLR,,0.00,WeatherDisplay:10.37,2013-05-21 07:27:00,
2013-05-21 02:32:00,76.3,70.7,29.71,WSW,252,8.1,8.1,83,0.00,SCT,,0.00,WeatherDisplay:10.37,2013-05-21 07:32:00,
2013-05-21 02:37:00,75.9,70.0,29.71,South,176,5.8,5.8,82,0.00,SCT,,0.00,WeatherDisplay:10.37,2013-05-21 07:37:00,
2013-05-21 02:42:00,75.7,69.9,29.71,SW,215,5.8,5.8,82,0.00,SCT,,0.00,WeatherDisplay:10.37,2013-05-21 07:42:00,
2013-05-21 02:47:00,75.6,69.7,29.71,SW,222,3.5,3.5,82,0.00,SCT,,0.00,WeatherDisplay:10.37,2013-05-21 07:47:00,
2013-05-21 02:52:00,75.6,69.7,29.71,WSW,255,3.5,3.5,82,0.00,SCT,,0.00,WeatherDisplay:10.37,2013-05-21 07:52:00,
2013-05-21 02:57:00,75.4,69.9,29.71,SSW,209,3.5,0.0,83,0.00,SCT,,0.00,WeatherDisplay:10.37,2013-05-21 07:57:00,
2013-05-21 03:02:00,75.2,69.7,29.71,SSW,206,3.5,4.0,83,0.00,SCT,,0.00,WeatherDisplay:10.37,2013-05-21 08:02:00,
2013-05-21 03:07:00,75.2,69.7,29.71,SW,229,5.8,5.8,83,0.00,SCT,,0.00,WeatherDisplay:10.37,2013-05-21 08:07:00,
2013-05-21 03:12:00,75.0,69.5,29.71,WSW,238,3.5,3.5,83,0.00,SCT,,0.00,WeatherDisplay:10.37,2013-05-21 08:12:00,
2013-05-21 03:17:00,75.0,69.5,29.71,SW,232,3.5,3.5,83,0.00,SCT,,0.00,WeatherDisplay:10.37,2013-05-21 08:17:00,
2013-05-21 03:22:00,74.8,69.3,29.71,SW,231,5.8,5.8,83,0.00,SCT,,0.00,WeatherDisplay:10.37,2013-05-21 08:22:00,
2013-05-21 03:27:00,74.7,69.2,29.74,SSW,210,3.5,4.0,83,0.00,SCT,,0.00,WeatherDisplay:10.37,2013-05-21 08:27:00,
2013-05-21 03:32:00,74.7,69.2,29.74,WSW,241,3.5,3.5,83,0.00,CLR,,0.00,WeatherDisplay:10.37,2013-05-21 08:32:00,
2013-05-21 03:37:00,74.3,68.8,29.74,South,188,3.5,3.5,83,0.00,CLR,,0.00,WeatherDisplay:10.37,2013-05-21 08:37:00,
2013-05-21 03:42:00,74.3,68.8,29.74,SW,224,3.5,3.5,83,0.00,CLR,,0.00,WeatherDisplay:10.37,2013-05-21 08:42:00,
2013-05-21 03:47:00,74.1,68.6,29.74,WSW,248,5.8,0.0,83,0.00,CLR,,0.00,WeatherDisplay:10.37,2013-05-21 08:47:00,
2013-05-21 03:52:00,73.9,68.8,29.74,SW,233,3.6,3.6,84,0.00,CLR,,0.00,WeatherDisplay:10.37,2013-05-21 08:52:00,
2013-05-21 03:57:00,73.9,68.8,29.74,WSW,257,5.8,5.8,84,0.00,CLR,,0.00,WeatherDisplay:10.37,2013-05-21 08:57:00,
2013-05-21 04:02:00,73.9,69.1,29.74,WSW,239,5.8,5.8,85,0.00,CLR,,0.00,WeatherDisplay:10.37,2013-05-21 09:02:00,
2013-05-21 04:07:00,73.9,69.1,29.74,West,264,4.6,4.6,85,0.00,CLR,,0.00,WeatherDisplay:10.37,2013-05-21 09:07:00,
2013-05-21 04:12:00,73.9,69.5,29.74,WSW,258,5.8,5.8,86,0.00,CLR,,0.00,WeatherDisplay:10.37,2013-05-21 09:12:00,
2013-05-21 04:17:00,73.8,69.3,29.74,WSW,247,3.5,3.5,86,0.00,CLR,,0.00,WeatherDisplay:10.37,2013-05-21 09:17:00,
2013-05-21 04:22:00,73.8,69.3,29.74,WSW,237,3.5,4.5,86,0.00,CLR,,0.00,WeatherDisplay:10.37,2013-05-21 09:22:00,
2013-05-21 04:27:00,73.6,69.1,29.74,WSW,244,2.3,2.7,86,0.00,CLR,,0.00,WeatherDisplay:10.37,2013-05-21 09:27:00,
2013-05-21 04:32:00,73.4,69.0,29.74,SW,215,3.5,3.5,86,0.00,SCT,,0.00,WeatherDisplay:10.37,2013-05-21 09:32:00,
2013-05-21 04:37:00,73.4,69.3,29.74,WSW,251,2.7,2.7,87,0.00,SCT,,0.00,WeatherDisplay:10.37,2013-05-21 09:37:00,
2013-05-21 04:42:00,73.2,69.1,29.74,WSW,248,2.3,0.0,87,0.00,SCT,,0.00,WeatherDisplay:10.37,2013-05-21 09:42:00,
2013-05-21 04:47:00,73.2,69.1,29.74,WSW,255,3.5,0.0,87,0.00,BKN,,0.00,WeatherDisplay:10.37,2013-05-21 09:47:00,
2013-05-21 04:52:00,73.0,69.3,29.74,WSW,253,0.0,0.0,88,0.00,BKN,,0.00,WeatherDisplay:10.37,2013-05-21 09:52:00,
2013-05-21 04:57:00,73.0,69.3,29.74,WSW,258,2.3,0.0,88,0.00,BKN,,0.00,WeatherDisplay:10.37,2013-05-21 09:57:00,
2013-05-21 05:02:00,73.0,69.3,29.74,WSW,258,0.0,0.0,88,0.00,SCT,,0.00,WeatherDisplay:10.37,2013-05-21 10:02:00,
2013-05-21 05:07:00,72.9,69.1,29.74,WSW,258,0.0,0.0,88,0.00,SCT,,0.00,WeatherDisplay:10.37,2013-05-21 10:07:00,
2013-05-21 05:12:00,72.7,68.9,29.74,SSW,194,0.0,0.0,88,0.00,SCT,,0.00,WeatherDisplay:10.37,2013-05-21 10:12:00,
2013-05-21 05:17:00,72.5,69.1,29.74,South,186,0.0,0.0,89,0.00,SCT,,0.00,WeatherDisplay:10.37,2013-05-21 10:17:00,
2013-05-21 05:22:00,72.5,69.1,29.74,South,186,0.0,0.0,89,0.00,SCT,,0.00,WeatherDisplay:10.37,2013-05-21 10:22:00,
2013-05-21 05:27:00,72.3,68.9,29.74,South,186,0.0,0.0,89,0.00,SCT,,0.00,WeatherDisplay:10.37,2013-05-21 10:27:00,
2013-05-21 05:32:00,72.1,68.7,29.74,South,186,0.0,0.0,89,0.00,SCT,,0.00,WeatherDisplay:10.37,2013-05-21 10:32:00,
2013-05-21 05:37:00,72.1,69.0,29.74,South,186,0.0,0.0,90,0.00,SCT,,0.00,WeatherDisplay:10.37,2013-05-21 10:37:00,
2013-05-21 05:42:00,72.0,68.9,29.74,South,186,0.0,0.0,90,0.00,SCT,,0.00,WeatherDisplay:10.37,2013-05-21 10:42:00,
2013-05-21 05:47:00,72.0,68.9,29.74,South,186,0.0,0.0,90,0.00,CLR,,0.00,WeatherDisplay:10.37,2013-05-21 10:47:00,
2013-05-21 05:52:00,71.8,68.7,29.74,South,186,0.0,0.0,90,0.00,CLR,,0.00,WeatherDisplay:10.37,2013-05-21 10:52:00,
2013-05-21 05:57:00,72.0,68.9,29.74,South,185,0.0,0.0,90,0.00,CLR,,0.00,WeatherDisplay:10.37,2013-05-21 10:57:00,
2013-05-21 06:02:00,72.0,68.9,29.74,SSW,208,0.0,0.0,90,0.00,CLR,,0.00,WeatherDisplay:10.37,2013-05-21 11:02:00,
2013-05-21 06:07:00,72.0,68.9,29.74,WSW,240,0.0,0.0,90,0.00,CLR,,0.00,WeatherDisplay:10.37,2013-05-21 11:07:00,
2013-05-21 06:12:00,72.0,68.9,29.74,WSW,250,2.3,0.0,90,0.00,CLR,,0.00,WeatherDisplay:10.37,2013-05-21 11:12:00,
2013-05-21 06:17:00,72.1,69.0,29.74,WSW,246,2.3,2.3,90,0.00,CLR,,0.00,WeatherDisplay:10.37,2013-05-21 11:17:00,
2013-05-21 06:22:00,72.0,68.9,29.74,WSW,254,0.0,0.0,90,0.00,CLR,,0.00,WeatherDisplay:10.37,2013-05-21 11:22:00,
2013-05-21 06:27:00,72.1,69.0,29.74,WSW,253,2.3,0.0,90,0.00,CLR,,0.00,WeatherDisplay:10.37,2013-05-21 11:27:00,
2013-05-21 06:32:00,72.1,69.0,29.74,WSW,253,0.0,0.0,90,0.00,CLR,,0.00,WeatherDisplay:10.37,2013-05-21 11:32:00,
2013-05-21 06:37:00,72.1,69.4,29.77,South,178,0.0,0.0,91,0.00,CLR,,0.00,WeatherDisplay:10.37,2013-05-21 11:37:00,
2013-05-21 06:42:00,72.1,69.4,29.77,South,178,0.0,0.0,91,0.00,CLR,,0.00,WeatherDisplay:10.37,2013-05-21 11:42:00,
2013-05-21 06:47:00,72.3,69.5,29.77,South,178,0.0,0.0,91,0.00,CLR,,0.00,WeatherDisplay:10.37,2013-05-21 11:47:00,
2013-05-21 06:52:00,72.5,69.7,29.77,South,178,0.0,0.0,91,0.00,CLR,,0.00,WeatherDisplay:10.37,2013-05-21 11:52:00,
2013-05-21 06:57:00,72.5,69.7,29.77,South,178,0.0,0.0,91,0.00,CLR,,0.00,WeatherDisplay:10.37,2013-05-21 11:57:00,
2013-05-21 07:02:00,73.0,70.3,29.77,South,178,0.0,0.0,91,0.00,CLR,,0.00,WeatherDisplay:10.37,2013-05-21 12:02:00,
2013-05-21 07:07:00,73.2,70.4,29.77,South,178,0.0,0.0,91,0.00,CLR,,0.00,WeatherDisplay:10.37,2013-05-21 12:07:00,
2013-05-21 07:12:00,73.4,70.3,29.77,South,178,0.0,0.0,90,0.00,CLR,,0.00,WeatherDisplay:10.37,2013-05-21 12:12:00,
2013-05-21 07:17:00,73.6,70.5,29.77,South,178,0.0,0.0,90,0.00,CLR,,0.00,WeatherDisplay:10.37,2013-05-21 12:17:00,
2013-05-21 07:22:00,73.8,70.6,29.77,South,177,0.0,0.0,90,0.00,CLR,,0.00,WeatherDisplay:10.37,2013-05-21 12:22:00,
2013-05-21 07:27:00,73.9,70.8,29.77,South,177,0.0,0.0,90,0.00,CLR,,0.00,WeatherDisplay:10.37,2013-05-21 12:27:00,
2013-05-21 07:32:00,74.1,71.0,29.77,South,177,0.0,0.0,90,0.00,CLR,,0.00,WeatherDisplay:10.37,2013-05-21 12:32:00,
2013-05-21 07:38:00,74.3,71.2,29.77,SE,144,0.0,0.0,90,0.00,CLR,,0.00,WeatherDisplay:10.37,2013-05-21 12:38:00,
2013-05-21 07:43:00,74.5,71.0,29.77,SE,141,3.5,0.0,89,0.00,CLR,,0.00,WeatherDisplay:10.37,2013-05-21 12:43:00,
2013-05-21 07:48:00,74.8,71.4,29.77,South,189,5.8,5.8,89,0.00,CLR,,0.00,WeatherDisplay:10.37,2013-05-21 12:48:00,
2013-05-21 07:53:00,75.0,71.6,29.77,WSW,246,5.4,5.4,89,0.00,CLR,,0.00,WeatherDisplay:10.37,2013-05-21 12:53:00,
2013-05-21 07:58:00,75.4,71.6,29.77,WSW,250,3.5,3.5,88,0.00,CLR,,0.00,WeatherDisplay:10.37,2013-05-21 12:58:00,
2013-05-21 08:03:00,75.6,71.8,29.77,ESE,103,3.5,3.6,88,0.00,BKN,,0.00,WeatherDisplay:10.37,2013-05-21 13:03:00,
2013-05-21 08:08:00,75.6,71.4,29.77,West,259,8.3,8.3,87,0.00,BKN,,0.00,WeatherDisplay:10.37,2013-05-21 13:08:00,
2013-05-21 08:13:00,75.6,71.4,29.77,WSW,239,5.8,5.8,87,0.00,BKN,,0.00,WeatherDisplay:10.37,2013-05-21 13:13:00,
2013-05-21 08:18:00,75.7,71.6,29.77,West,261,10.4,10.4,87,0.00,BKN,,0.00,WeatherDisplay:10.37,2013-05-21 13:18:00,
2013-05-21 08:23:00,75.9,71.8,29.74,WSW,254,8.1,8.1,87,0.00,BKN,,0.00,WeatherDisplay:10.37,2013-05-21 13:23:00,
2013-05-21 08:28:00,76.1,71.9,29.74,WSW,256,9.6,9.6,87,0.00,BKN,,0.00,WeatherDisplay:10.37,2013-05-21 13:28:00,
2013-05-21 08:33:00,76.1,71.6,29.74,SW,222,8.1,8.1,86,0.00,OVC,,0.00,WeatherDisplay:10.37,2013-05-21 13:33:00,
2013-05-21 08:38:00,76.3,71.8,29.74,WNW,293,8.1,8.1,86,0.00,OVC,,0.00,WeatherDisplay:10.37,2013-05-21 13:38:00,
2013-05-21 08:43:00,76.6,72.1,29.74,West,262,11.5,11.5,86,0.00,OVC,,0.00,WeatherDisplay:10.37,2013-05-21 13:43:00,
2013-05-21 08:48:00,77.0,72.1,29.74,WSW,238,9.2,9.2,85,0.00,OVC,,0.00,WeatherDisplay:10.37,2013-05-21 13:48:00,
2013-05-21 08:53:00,77.2,72.3,29.74,WSW,257,8.1,8.1,85,0.00,OVC,,0.00,WeatherDisplay:10.37,2013-05-21 13:53:00,
2013-05-21 08:58:00,77.4,72.1,29.74,WSW,249,8.7,8.7,84,0.00,OVC,,0.00,WeatherDisplay:10.37,2013-05-21 13:58:00,
2013-05-21 09:03:00,77.4,72.1,29.74,SW,227,9.2,9.2,84,0.00,OVC,,0.00,WeatherDisplay:10.37,2013-05-21 14:03:00,
2013-05-21 09:08:00,77.7,72.1,29.74,WSW,242,10.4,10.4,83,0.00,OVC,,0.00,WeatherDisplay:10.37,2013-05-21 14:08:00,
2013-05-21 09:13:00,77.9,72.3,29.74,SW,233,5.8,5.8,83,0.00,OVC,,0.00,WeatherDisplay:10.37,2013-05-21 14:13:00,
2013-05-21 09:18:00,79.2,72.8,29.74,SW,234,8.1,8.1,81,0.00,OVC,,0.00,WeatherDisplay:10.37,2013-05-21 14:18:00,
2013-05-21 09:23:00,79.7,73.0,29.74,WSW,258,8.1,8.1,80,0.00,OVC,,0.00,WeatherDisplay:10.37,2013-05-21 14:23:00,
2013-05-21 09:28:00,79.7,72.6,29.74,West,262,9.2,9.2,79,0.00,OVC,,0.00,WeatherDisplay:10.37,2013-05-21 14:28:00,
2013-05-21 09:33:00,80.2,72.8,29.74,West,263,8.1,8.1,78,0.00,OVC,,0.00,WeatherDisplay:10.37,2013-05-21 14:33:00,
2013-05-21 09:38:00,80.1,72.2,29.77,WSW,252,9.2,9.2,77,0.00,OVC,,0.00,WeatherDisplay:10.37,2013-05-21 14:38:00,
2013-05-21 09:43:00,79.7,71.8,29.77,WSW,248,5.8,5.8,77,0.00,OVC,,0.00,WeatherDisplay:10.37,2013-05-21 14:43:00,
2013-05-21 09:48:00,79.9,72.0,29.77,South,183,9.2,9.2,77,0.00,OVC,,0.00,WeatherDisplay:10.37,2013-05-21 14:48:00,
2013-05-21 09:53:00,80.1,72.2,29.77,SSW,213,6.9,7.2,77,0.00,OVC,,0.00,WeatherDisplay:10.37,2013-05-21 14:53:00,
2013-05-21 09:58:00,80.2,72.0,29.77,WSW,249,10.4,10.4,76,0.00,OVC,,0.00,WeatherDisplay:10.37,2013-05-21 14:58:00,
2013-05-21 10:03:00,80.4,72.2,29.77,WSW,239,8.1,8.1,76,0.00,OVC,,0.00,WeatherDisplay:10.37,2013-05-21 15:03:00,
2013-05-21 10:08:00,80.6,72.3,29.77,South,170,8.1,8.1,76,0.00,OVC,,0.00,WeatherDisplay:10.37,2013-05-21 15:08:00,
2013-05-21 10:13:00,80.8,72.1,29.77,WSW,241,8.1,8.1,75,0.00,OVC,,0.00,WeatherDisplay:10.37,2013-05-21 15:13:00,
2013-05-21 10:18:00,81.1,72.1,29.77,West,275,11.5,11.5,74,0.00,OVC,,0.00,WeatherDisplay:10.37,2013-05-21 15:18:00,
2013-05-21 10:23:00,81.3,72.2,29.77,WSW,257,5.8,5.8,74,0.00,OVC,,0.00,WeatherDisplay:10.37,2013-05-21 15:23:00,
2013-05-21 10:28:00,81.5,71.2,29.77,SSW,198,11.5,11.5,71,0.00,OVC,,0.00,WeatherDisplay:10.37,2013-05-21 15:28:00,
2013-05-21 10:33:00,81.7,71.8,29.77,SW,217,8.1,8.1,72,0.00,OVC,,0.00,WeatherDisplay:10.37,2013-05-21 15:33:00,
2013-05-21 10:38:00,82.6,72.6,29.77,SSE,166,10.4,10.4,72,0.00,OVC,,0.00,WeatherDisplay:10.37,2013-05-21 15:38:00,
2013-05-21 10:43:00,82.6,72.2,29.77,WSW,254,8.1,8.1,71,0.00,OVC,,0.00,WeatherDisplay:10.37,2013-05-21 15:43:00,
2013-05-21 10:48:00,82.2,71.9,29.77,SW,226,8.1,8.1,71,0.00,OVC,,0.00,WeatherDisplay:10.37,2013-05-21 15:48:00,
2013-05-21 10:53:00,82.0,71.7,29.77,WSW,246,8.1,8.1,71,0.00,OVC,,0.00,WeatherDisplay:10.37,2013-05-21 15:53:00,
2013-05-21 10:58:00,82.2,71.9,29.77,SW,236,8.1,8.1,71,0.00,OVC,,0.00,WeatherDisplay:10.37,2013-05-21 15:58:00,
2013-05-21 11:03:00,82.4,71.6,29.77,SW,220,9.2,9.2,70,0.00,OVC,,0.00,WeatherDisplay:10.37,2013-05-21 16:03:00,
2013-05-21 11:08:00,82.4,71.6,29.77,WSW,242,8.1,8.1,70,0.00,OVC,,0.00,WeatherDisplay:10.37,2013-05-21 16:08:00,
2013-05-21 11:13:00,83.3,72.1,29.77,South,187,10.4,10.4,69,0.00,OVC,,0.00,WeatherDisplay:10.37,2013-05-21 16:13:00,
2013-05-21 11:18:00,83.5,71.8,29.77,West,269,5.8,5.8,68,0.00,OVC,,0.00,WeatherDisplay:10.37,2013-05-21 16:18:00,
2013-05-21 11:23:00,83.7,72.0,29.77,SW,222,9.2,9.2,68,0.00,OVC,,0.00,WeatherDisplay:10.37,2013-05-21 16:23:00,
2013-05-21 11:28:00,85.1,72.5,29.80,SSW,200,8.1,8.1,66,0.00,OVC,,0.00,WeatherDisplay:10.37,2013-05-21 16:28:00,
2013-05-21 11:33:00,85.1,72.0,29.80,SW,235,10.4,10.4,65,0.00,OVC,,0.00,WeatherDisplay:10.37,2013-05-21 16:33:00,
2013-05-21 11:38:00,85.1,72.0,29.77,SSW,200,11.5,11.5,65,0.00,OVC,,0.00,WeatherDisplay:10.37,2013-05-21 16:38:00,
2013-05-21 11:43:00,84.9,71.4,29.77,SW,236,9.2,9.2,64,0.00,OVC,,0.00,WeatherDisplay:10.37,2013-05-21 16:43:00,
2013-05-21 11:48:00,84.9,70.9,29.77,WSW,253,5.8,5.8,63,0.00,OVC,,0.00,WeatherDisplay:10.37,2013-05-21 16:48:00,
2013-05-21 11:53:00,84.9,70.9,29.77,WSW,244,8.1,8.1,63,0.00,OVC,,0.00,WeatherDisplay:10.37,2013-05-21 16:53:00,
2013-05-21 11:58:00,86.4,72.3,29.77,SSW,212,5.8,5.8,63,0.00,OVC,,0.00,WeatherDisplay:10.37,2013-05-21 16:58:00,
2013-05-21 12:03:00,86.4,72.3,29.77,West,263,10.4,10.4,63,0.00,OVC,,0.00,WeatherDisplay:10.37,2013-05-21 17:03:00,
2013-05-21 12:08:00,86.9,73.3,29.77,SSW,203,10.4,10.4,64,0.00,OVC,,0.00,WeatherDisplay:10.37,2013-05-21 17:08:00,
2013-05-21 12:13:00,86.9,73.3,29.77,West,259,12.7,12.7,64,0.00,OVC,,0.00,WeatherDisplay:10.37,2013-05-21 17:13:00,
2013-05-21 12:18:00,86.9,73.3,29.77,ENE,73,9.2,9.2,64,0.00,OVC,,0.00,WeatherDisplay:10.37,2013-05-21 17:18:00,
2013-05-21 12:23:00,86.9,73.3,29.77,WSW,249,13.8,13.8,64,0.00,OVC,,0.00,WeatherDisplay:10.37,2013-05-21 17:23:00,
2013-05-21 12:28:00,86.9,73.3,29.77,SW,229,5.8,9.2,64,0.00,OVC,,0.00,WeatherDisplay:10.37,2013-05-21 17:28:00,
2013-05-21 12:33:00,89.1,72.4,29.77,SW,226,10.4,10.5,58,0.00,OVC,,0.00,WeatherDisplay:10.37,2013-05-21 17:33:00,
2013-05-21 12:38:00,89.2,72.5,29.77,SW,235,13.8,13.8,58,0.00,OVC,,0.00,WeatherDisplay:10.37,2013-05-21 17:38:00,
2013-05-21 12:43:00,88.5,71.3,29.77,SSW,211,12.7,12.7,57,0.00,OVC,,0.00,WeatherDisplay:10.37,2013-05-21 17:43:00,
2013-05-21 12:49:00,88.5,71.3,29.77,SSW,210,9.2,9.2,57,0.00,OVC,,0.00,WeatherDisplay:10.37,2013-05-21 17:49:00,
2013-05-21 12:54:00,88.9,72.7,29.74,ENE,78,8.1,8.1,59,0.00,OVC,,0.00,WeatherDisplay:10.37,2013-05-21 17:54:00,
2013-05-21 12:59:00,88.7,72.0,29.74,SW,229,10.4,10.4,58,0.00,OVC,,0.00,WeatherDisplay:10.37,2013-05-21 17:59:00,
2013-05-21 13:04:00,87.8,70.7,29.74,West,271,11.5,11.5,57,0.00,BKN,,0.00,WeatherDisplay:10.37,2013-05-21 18:04:00,
2013-05-21 13:09:00,88.5,71.9,29.74,SW,233,8.1,8.1,58,0.00,BKN,,0.00,WeatherDisplay:10.37,2013-05-21 18:09:00,
2013-05-21 13:14:00,88.7,72.5,29.74,West,266,11.5,11.5,59,0.00,BKN,,0.00,WeatherDisplay:10.37,2013-05-21 18:14:00,
2013-05-21 13:19:00,87.3,71.2,29.74,WSW,252,11.5,11.5,59,0.00,SCT,,0.00,WeatherDisplay:10.37,2013-05-21 18:19:00,
2013-05-21 13:24:00,86.9,70.8,29.74,West,263,10.4,10.4,59,0.00,SCT,,0.00,WeatherDisplay:10.37,2013-05-21 18:24:00,
2013-05-21 13:29:00,86.9,70.8,29.74,SW,230,12.7,12.7,59,0.00,SCT,,0.00,WeatherDisplay:10.37,2013-05-21 18:29:00,
2013-05-21 13:34:00,86.0,69.5,29.74,SSW,194,11.5,11.5,58,0.00,BKN,,0.00,WeatherDisplay:10.37,2013-05-21 18:34:00,
2013-05-21 13:39:00,85.3,70.3,29.71,West,262,9.2,9.2,61,0.00,BKN,,0.00,WeatherDisplay:10.37,2013-05-21 18:39:00,
2013-05-21 13:44:00,85.1,70.6,29.71,WSW,252,10.4,10.4,62,0.00,BKN,,0.00,WeatherDisplay:10.37,2013-05-21 18:44:00,
2013-05-21 13:49:00,84.4,69.9,29.71,WSW,254,5.8,9.2,62,0.00,BKN,,0.00,WeatherDisplay:10.37,2013-05-21 18:49:00,
2013-05-21 13:54:00,84.9,70.9,29.71,West,264,11.5,11.5,63,0.00,BKN,,0.00,WeatherDisplay:10.37,2013-05-21 18:54:00,
2013-05-21 13:59:00,85.1,71.1,29.71,WNW,285,8.1,8.1,63,0.00,BKN,,0.00,WeatherDisplay:10.37,2013-05-21 18:59:00,
2013-05-21 14:04:00,85.3,70.8,29.71,SW,231,10.4,10.4,62,0.00,BKN,,0.00,WeatherDisplay:10.37,2013-05-21 19:04:00,
2013-05-21 14:09:00,84.7,69.8,29.71,SSW,204,9.2,9.2,61,0.00,BKN,,0.00,WeatherDisplay:10.37,2013-05-21 19:09:00,
2013-05-21 14:14:00,85.1,71.1,29.71,NW,310,5.8,8.7,63,0.00,BKN,,0.00,WeatherDisplay:10.37,2013-05-21 19:14:00,
2013-05-21 14:19:00,84.9,70.9,29.71,SW,233,8.1,8.1,63,0.00,SCT,,0.00,WeatherDisplay:10.37,2013-05-21 19:19:00,
2013-05-21 14:24:00,84.9,70.9,29.71,WSW,244,12.7,12.7,63,0.00,SCT,,0.00,WeatherDisplay:10.37,2013-05-21 19:24:00,
2013-05-21 14:29:00,85.1,71.1,29.68,WSW,255,8.1,10.1,63,0.00,SCT,,0.00,WeatherDisplay:10.37,2013-05-21 19:29:00,
2013-05-21 14:34:00,84.2,70.2,29.68,SW,226,8.1,8.1,63,0.00,SCT,,0.00,WeatherDisplay:10.37,2013-05-21 19:34:00,
2013-05-21 14:39:00,83.7,70.2,29.68,SW,222,8.1,8.1,64,0.00,SCT,,0.00,WeatherDisplay:10.37,2013-05-21 19:39:00,
2013-05-21 14:44:00,83.5,70.5,29.68,SW,220,10.4,10.4,65,0.00,SCT,,0.00,WeatherDisplay:10.37,2013-05-21 19:44:00,
2013-05-21 14:49:00,83.1,70.1,29.68,WSW,245,8.1,8.1,65,0.00,OVC,,0.00,WeatherDisplay:10.37,2013-05-21 19:49:00,
2013-05-21 14:54:00,82.6,70.1,29.65,WSW,252,5.8,7.2,66,0.00,OVC,,0.00,WeatherDisplay:10.37,2013-05-21 19:54:00,
2013-05-21 14:59:00,82.2,70.2,29.65,SW,226,10.4,10.4,67,0.00,OVC,,0.00,WeatherDisplay:10.37,2013-05-21 19:59:00,
2013-05-21 15:04:00,81.9,70.7,29.65,WSW,257,4.9,4.9,69,0.00,OVC,,0.00,WeatherDisplay:10.37,2013-05-21 20:04:00,
2013-05-21 15:09:00,81.9,70.7,29.71,WNW,286,9.2,9.2,69,0.00,OVC,,0.00,WeatherDisplay:10.37,2013-05-21 20:09:00,
2013-05-21 15:14:00,81.9,70.7,29.71,North,7,16.1,16.1,69,0.00,OVC,,0.00,WeatherDisplay:10.37,2013-05-21 20:14:00,
2013-05-21 15:19:00,69.3,59.1,29.71,North,7,15.0,15.0,70,0.02,RA,,0.10,WeatherDisplay:10.37,2013-05-21 20:19:00,
2013-05-21 15:24:00,69.3,59.1,29.74,NNE,19,13.8,13.8,70,0.19,RA,,0.19,WeatherDisplay:10.37,2013-05-21 20:24:00,
2013-05-21 15:29:00,69.3,59.1,29.74,NNW,337,11.5,11.5,70,0.31,RA,,0.34,WeatherDisplay:10.37,2013-05-21 20:29:00,
2013-05-21 15:34:00,69.3,59.1,29.74,NNW,345,12.7,12.7,70,0.60,-RA,,0.60,WeatherDisplay:10.37,2013-05-21 20:34:00,
2013-05-21 15:39:00,69.3,59.1,29.74,North,349,10.4,10.4,70,0.86,-RA,,0.86,WeatherDisplay:10.37,2013-05-21 20:39:00,
2013-05-21 15:44:00,69.3,59.1,29.71,NNE,20,10.4,10.4,70,1.02,-RA,,1.02,WeatherDisplay:10.37,2013-05-21 20:44:00,
2013-05-21 15:49:00,69.3,59.1,29.71,North,353,8.1,8.1,70,1.28,-RA,,1.28,WeatherDisplay:10.37,2013-05-21 20:49:00,
2013-05-21 15:54:00,69.3,59.1,29.71,North,7,9.2,9.2,70,1.36,-RA,,1.36,WeatherDisplay:10.37,2013-05-21 20:54:00,
2013-05-21 15:59:00,69.3,59.1,29.74,NNW,342,12.7,12.7,70,1.44,-RA,,1.44,WeatherDisplay:10.37,2013-05-21 20:59:00,
2013-05-21 16:04:00,69.3,59.1,29.74,North,9,9.2,9.2,70,1.50,RA,,1.50,WeatherDisplay:10.37,2013-05-21 21:04:00,
2013-05-21 16:09:00,69.3,59.1,29.74,NNW,343,12.7,12.7,70,1.69,RA,,1.69,WeatherDisplay:10.37,2013-05-21 21:09:00,
2013-05-21 16:14:00,69.3,59.1,29.74,North,0,11.5,11.5,70,1.73,RA,,1.73,WeatherDisplay:10.37,2013-05-21 21:14:00,
2013-05-21 16:19:00,69.3,59.1,29.74,NNW,331,9.2,9.2,70,1.77,RA,,1.80,WeatherDisplay:10.37,2013-05-21 21:19:00,
2013-05-21 16:24:00,69.3,59.1,29.74,North,353,5.8,5.8,70,1.65,RA,,1.84,WeatherDisplay:10.37,2013-05-21 21:24:00,
2013-05-21 16:29:00,69.3,59.1,29.74,North,349,8.1,8.1,70,1.56,RA,,1.85,WeatherDisplay:10.37,2013-05-21 21:29:00,
2013-05-21 16:34:00,69.3,59.1,29.74,NNW,343,3.6,3.6,70,1.35,RA,,1.85,WeatherDisplay:10.37,2013-05-21 21:34:00,
2013-05-21 16:39:00,69.3,59.1,29.74,North,353,8.1,8.1,70,1.31,RA,,1.95,WeatherDisplay:10.37,2013-05-21 21:39:00,
2013-05-21 16:44:00,69.3,59.1,29.74,NNW,341,5.8,5.8,70,1.11,RA,,2.00,WeatherDisplay:10.37,2013-05-21 21:44:00,
2013-05-21 16:49:00,69.3,59.1,29.74,North,0,8.1,8.1,70,0.88,RA,,2.01,WeatherDisplay:10.37,2013-05-21 21:49:00,
2013-05-21 16:54:00,69.3,59.1,29.74,NNW,343,8.1,8.1,70,0.73,RA,,2.01,WeatherDisplay:10.37,2013-05-21 21:54:00,
2013-05-21 16:59:00,69.3,59.1,29.74,NE,40,5.8,5.8,70,0.65,OVC,,2.01,WeatherDisplay:10.37,2013-05-21 21:59:00,
2013-05-21 17:04:00,69.3,59.1,29.74,North,349,7.2,7.2,70,0.62,RA,,2.06,WeatherDisplay:10.37,2013-05-21 22:04:00,
2013-05-21 17:09:00,69.3,59.1,29.74,North,353,5.8,5.8,70,0.39,RA,,2.06,WeatherDisplay:10.37,2013-05-21 22:09:00,
2013-05-21 17:14:00,69.3,59.1,29.74,NNW,332,5.8,6.3,70,0.34,OVC,,2.06,WeatherDisplay:10.37,2013-05-21 22:14:00,
2013-05-21 17:19:00,69.3,59.1,29.74,North,357,5.8,5.8,70,0.29,OVC,,2.06,WeatherDisplay:10.37,2013-05-21 22:19:00,
2013-05-21 17:24:00,69.3,59.1,29.74,NNW,338,4.6,4.6,70,0.24,OVC,,2.06,WeatherDisplay:10.37,2013-05-21 22:24:00,
2013-05-21 17:29:00,69.3,59.1,29.74,North,357,5.8,5.8,70,0.22,OVC,,2.06,WeatherDisplay:10.37,2013-05-21 22:29:00,
2013-05-21 17:34:00,69.3,59.1,29.74,NW,320,2.3,3.1,70,0.21,OVC,,2.06,WeatherDisplay:10.37,2013-05-21 22:34:00,
2013-05-21 17:39:00,69.3,59.1,29.74,NNW,329,5.8,5.8,70,0.12,RA,,2.07,WeatherDisplay:10.37,2013-05-21 22:39:00,
2013-05-21 17:44:00,69.3,59.1,29.74,North,353,3.5,4.5,70,0.07,RA,,2.07,WeatherDisplay:10.37,2013-05-21 22:44:00,
2013-05-21 17:49:00,69.3,59.1,29.74,North,353,3.5,4.5,70,0.06,OVC,,2.07,WeatherDisplay:10.37,2013-05-21 22:49:00,
2013-05-21 17:54:00,69.3,59.1,29.74,NNW,341,5.8,6.3,70,0.06,OVC,,2.07,WeatherDisplay:10.37,2013-05-21 22:54:00,
2013-05-21 17:59:00,69.3,59.1,29.74,NNW,330,2.3,4.0,70,0.06,OVC,,2.07,WeatherDisplay:10.37,2013-05-21 22:59:00,
2013-05-21 18:04:00,69.3,59.1,29.74,NNW,329,3.5,3.5,70,0.01,OVC,,2.08,WeatherDisplay:10.37,2013-05-21 23:04:00,
2013-05-21 18:09:00,69.3,59.1,29.77,NNW,340,2.3,0.0,70,0.02,RA,,2.08,WeatherDisplay:10.37,2013-05-21 23:09:00,
2013-05-21 18:14:00,69.3,59.1,29.77,NNW,341,2.3,0.0,70,0.02,RA,,2.08,WeatherDisplay:10.37,2013-05-21 23:14:00,
2013-05-21 18:19:00,69.3,59.1,29.77,North,353,5.8,0.0,70,0.02,OVC,,2.08,WeatherDisplay:10.37,2013-05-21 23:19:00,
2013-05-21 18:24:00,69.3,59.1,29.77,North,353,2.3,0.0,70,0.02,OVC,,2.08,WeatherDisplay:10.37,2013-05-21 23:24:00,
2013-05-21 18:29:00,69.3,59.1,29.74,NNE,24,3.5,3.5,70,0.25,RA,,2.31,WeatherDisplay:10.37,2013-05-21 23:29:00,
2013-05-21 18:34:00,69.3,59.1,29.74,North,8,3.5,0.0,70,0.25,RA,,2.31,WeatherDisplay:10.37,2013-05-21 23:34:00,
2013-05-21 18:39:00,69.3,59.1,29.77,NNE,21,3.5,0.0,70,0.24,OVC,,2.31,WeatherDisplay:10.37,2013-05-21 23:39:00,
2013-05-21 18:44:00,69.3,59.1,29.77,NNE,16,0.0,3.0,70,0.00,OVC,,2.31,WeatherDisplay:10.37,2013-05-21 23:44:00,
2013-05-21 18:49:00,69.3,59.1,29.77,NE,35,0.0,2.0,70,0.00,OVC,,2.31,WeatherDisplay:10.37,2013-05-21 23:49:00,
2013-05-21 18:54:00,69.3,59.1,29.77,North,10,2.3,0.0,70,0.25,RA,,2.32,WeatherDisplay:10.37,2013-05-21 23:54:00,
2013-05-21 18:59:00,63.1,62.6,29.77,NNE,12,0.0,4.0,98,0.00,RA,,2.32,WeatherDisplay:10.37,2013-05-21 23:59:00,
2013-05-21 19:04:00,63.0,62.4,29.77,NNE,14,1.0,4.0,98,0.00,OVC,,2.32,WeatherDisplay:10.37,2013-05-22 00:04:00,
2013-05-21 19:09:00,63.0,62.4,29.77,NNE,15,2.3,0.0,98,0.25,RA,,2.33,WeatherDisplay:10.37,2013-05-22 00:09:00,
2013-05-21 19:14:00,63.0,62.4,29.77,NNE,18,3.5,3.5,98,0.25,RA,,2.33,WeatherDisplay:10.37,2013-05-22 00:14:00,
2013-05-21 19:20:00,63.0,62.4,29.77,North,11,2.0,6.0,98,0.00,OVC,,2.33,WeatherDisplay:10.37,2013-05-22 00:20:00,
2013-05-21 19:24:00,63.0,62.4,29.77,North,11,2.0,4.0,98,0.00,OVC,,2.33,WeatherDisplay:10.37,2013-05-22 00:24:00,
2013-05-21 19:29:00,63.0,62.4,29.77,North,5,3.0,6.0,98,0.00,OVC,,2.33,WeatherDisplay:10.37,2013-05-22 00:29:00,
2013-05-21 19:34:00,63.3,62.7,29.77,ENE,64,3.5,0.0,98,0.02,OVC,,2.33,WeatherDisplay:10.37,2013-05-22 00:34:00,
2013-05-21 19:39:00,63.1,62.6,29.77,North,357,3.5,4.5,98,0.02,OVC,,2.33,WeatherDisplay:10.37,2013-05-22 00:39:00,
2013-05-21 19:44:00,63.3,62.7,29.77,North,2,0.0,3.0,98,0.00,OVC,,2.33,WeatherDisplay:10.37,2013-05-22 00:44:00,
2013-05-21 19:49:00,63.3,62.7,29.77,NNE,13,5.8,5.8,98,0.02,OVC,,2.33,WeatherDisplay:10.37,2013-05-22 00:49:00,
2013-05-21 19:54:00,63.3,62.7,29.77,North,353,4.6,0.0,98,0.01,OVC,,2.33,WeatherDisplay:10.37,2013-05-22 00:54:00,
2013-05-21 19:59:00,63.3,62.7,29.77,North,357,2.0,4.0,98,0.00,OVC,,2.33,WeatherDisplay:10.37,2013-05-22 00:59:00,
2013-05-21 20:04:00,63.1,62.6,29.77,North,357,3.5,3.5,98,0.01,OVC,,2.33,WeatherDisplay:10.37,2013-05-22 01:04:00,
2013-05-21 20:09:00,63.1,62.6,29.80,NNE,12,3.5,3.5,98,0.00,OVC,,2.33,WeatherDisplay:10.37,2013-05-22 01:09:00,
2013-05-21 20:14:00,63.0,62.4,29.80,North,357,2.0,6.0,98,0.00,OVC,,2.33,WeatherDisplay:10.37,2013-05-22 01:14:00,
2013-05-21 20:19:00,63.0,62.4,29.80,North,353,3.5,0.0,98,0.00,OVC,,2.33,WeatherDisplay:10.37,2013-05-22 01:19:00,
2013-05-21 20:24:00,63.0,62.4,29.80,North,0,2.3,0.0,98,0.00,OVC,,2.33,WeatherDisplay:10.37,2013-05-22 01:24:00,
2013-05-21 20:29:00,63.0,62.4,29.80,North,359,1.0,4.0,98,0.00,OVC,,2.33,WeatherDisplay:10.37,2013-05-22 01:29:00,
2013-05-21 20:34:00,63.0,62.4,29.80,North,353,3.5,0.0,98,0.00,OVC,,2.33,WeatherDisplay:10.37,2013-05-22 01:34:00,
2013-05-21 20:39:00,63.0,62.4,29.80,North,355,2.0,4.0,98,0.00,OVC,,2.33,WeatherDisplay:10.37,2013-05-22 01:39:00,
2013-05-21 20:44:00,63.0,62.4,29.80,North,356,0.0,4.0,98,0.00,OVC,,2.33,WeatherDisplay:10.37,2013-05-22 01:44:00,
2013-05-21 20:49:00,62.9,62.3,29.80,North,0,0.0,4.0,98,0.00,OVC,,2.33,WeatherDisplay:10.37,2013-05-22 01:49:00,
2013-05-21 20:54:00,62.8,62.2,29.77,North,353,3.5,0.0,98,0.00,OVC,,2.33,WeatherDisplay:10.37,2013-05-22 01:54:00,
2013-05-21 20:59:00,62.8,62.2,29.77,North,353,2.3,0.0,98,0.00,OVC,,2.33,WeatherDisplay:10.37,2013-05-22 01:59:00,
2013-05-21 21:04:00,62.8,62.2,29.77,North,355,0.0,3.0,98,0.00,OVC,,2.33,WeatherDisplay:10.37,2013-05-22 02:04:00,
2013-05-21 21:09:00,62.6,62.0,29.80,North,357,2.3,0.0,98,0.00,OVC,,2.33,WeatherDisplay:10.37,2013-05-22 02:09:00,
2013-05-21 21:14:00,62.6,62.0,29.80,North,2,3.5,0.0,98,0.00,OVC,,2.33,WeatherDisplay:10.37,2013-05-22 02:14:00,
2013-05-21 21:19:00,62.6,62.0,29.80,North,3,0.0,3.0,98,0.00,OVC,,2.33,WeatherDisplay:10.37,2013-05-22 02:19:00,
2013-05-21 21:24:00,62.6,62.0,29.80,North,4,0.0,0.0,98,0.00,OVC,,2.33,WeatherDisplay:10.37,2013-05-22 02:24:00,
2013-05-21 21:29:00,62.6,62.0,29.80,North,4,2.3,0.0,98,0.00,OVC,,2.33,WeatherDisplay:10.37,2013-05-22 02:29:00,
2013-05-21 21:34:00,62.6,62.0,29.80,North,4,0.0,0.0,98,0.00,OVC,,2.33,WeatherDisplay:10.37,2013-05-22 02:34:00,
2013-05-21 21:39:00,62.8,62.2,29.80,North,4,0.0,0.0,98,0.00,OVC,,2.33,WeatherDisplay:10.37,2013-05-22 02:39:00,
2013-05-21 21:44:00,62.8,62.2,29.80,North,4,0.0,0.0,98,0.00,OVC,,2.33,WeatherDisplay:10.37,2013-05-22 02:44:00,
2013-05-21 21:49:00,62.8,62.2,29.80,North,4,0.0,3.0,98,0.00,OVC,,2.33,WeatherDisplay:10.37,2013-05-22 02:49:00,
2013-05-21 21:54:00,62.8,62.2,29.80,West,276,2.3,0.0,98,0.00,OVC,,2.33,WeatherDisplay:10.37,2013-05-22 02:54:00,
2013-05-21 21:59:00,62.8,62.2,29.80,West,276,2.3,0.0,98,0.00,OVC,,2.33,WeatherDisplay:10.37,2013-05-22 02:59:00,
2013-05-21 22:04:00,62.6,62.0,29.80,West,259,0.0,3.0,98,0.00,OVC,,2.33,WeatherDisplay:10.37,2013-05-22 03:04:00,
2013-05-21 22:09:00,62.6,62.0,29.83,SW,224,0.0,0.0,98,0.00,OVC,,2.33,WeatherDisplay:10.37,2013-05-22 03:09:00,
2013-05-21 22:14:00,62.6,62.0,29.83,SW,224,0.0,0.0,98,0.00,OVC,,2.33,WeatherDisplay:10.37,2013-05-22 03:14:00,
2013-05-21 22:19:00,62.6,62.0,29.83,SW,224,0.0,2.0,98,0.00,OVC,,2.33,WeatherDisplay:10.37,2013-05-22 03:19:00,
2013-05-21 22:24:00,62.6,62.0,29.83,SW,224,0.0,0.0,98,0.00,OVC,,2.33,WeatherDisplay:10.37,2013-05-22 03:24:00,
2013-05-21 22:29:00,62.6,62.0,29.83,SW,224,0.0,0.0,98,0.00,OVC,,2.33,WeatherDisplay:10.37,2013-05-22 03:29:00,
2013-05-21 22:34:00,62.8,62.2,29.83,SW,224,0.0,0.0,98,0.00,OVC,,2.33,WeatherDisplay:10.37,2013-05-22 03:34:00,
2013-05-21 22:39:00,62.8,62.2,29.83,NE,39,0.0,0.0,98,0.00,OVC,,2.33,WeatherDisplay:10.37,2013-05-22 03:39:00,
2013-05-21 22:44:00,62.8,62.2,29.83,NNE,33,0.0,2.0,98,0.00,OVC,,2.33,WeatherDisplay:10.37,2013-05-22 03:44:00,
2013-05-21 22:49:00,63.0,62.4,29.83,NE,39,0.0,0.0,98,0.00,OVC,,2.33,WeatherDisplay:10.37,2013-05-22 03:49:00,
2013-05-21 22:54:00,62.8,62.2,29.83,NNE,18,3.5,3.5,98,0.00,OVC,,2.33,WeatherDisplay:10.37,2013-05-22 03:54:00,
2013-05-21 22:59:00,62.8,62.2,29.83,NNE,22,0.0,3.0,98,0.00,OVC,,2.33,WeatherDisplay:10.37,2013-05-22 03:59:00,
2013-05-21 23:01:00,62.8,62.2,29.83,North,5,2.3,0.0,98,0.00,OVC,,2.33,WeatherDisplay:10.37,2013-05-22 04:01:00,
2013-05-21 23:06:00,62.8,62.2,29.83,North,5,3.5,0.0,98,0.00,OVC,,2.33,WeatherDisplay:10.37,2013-05-22 04:06:00,
2013-05-21 23:11:00,62.8,62.2,29.83,North,6,2.3,0.0,98,0.00,OVC,,2.33,WeatherDisplay:10.37,2013-05-22 04:11:00,
2013-05-21 23:16:00,62.8,62.2,29.83,North,6,2.3,0.0,98,0.00,OVC,,2.33,WeatherDisplay:10.37,2013-05-22 04:16:00,
2013-05-21 23:21:00,62.8,62.2,29.83,North,6,0.0,0.0,98,0.00,OVC,,2.33,WeatherDisplay:10.37,2013-05-22 04:21:00,
2013-05-21 23:26:00,62.8,62.2,29.83,North,6,0.0,0.0,98,0.00,OVC,,2.33,WeatherDisplay:10.37,2013-05-22 04:26:00,
2013-05-21 23:31:00,62.8,62.2,29.83,North,6,0.0,0.0,98,0.00,OVC,,2.33,WeatherDisplay:10.37,2013-05-22 04:31:00,
2013-05-21 23:36:00,62.8,62.2,29.83,North,6,0.0,0.0,98,0.00,OVC,,2.33,WeatherDisplay:10.37,2013-05-22 04:36:00,
2013-05-21 23:41:00,62.8,62.2,29.83,North,6,0.0,0.0,98,0.00,OVC,,2.33,WeatherDisplay:10.37,2013-05-22 04:41:00,
2013-05-21 23:46:00,62.8,62.2,29.83,North,6,0.0,0.0,98,0.00,OVC,,2.33,WeatherDisplay:10.37,2013-05-22 04:46:00,
2013-05-21 23:51:00,63.0,62.4,29.83,North,6,0.0,0.0,98,0.00,OVC,,2.33,WeatherDisplay:10.37,2013-05-22 04:51:00,
2013-05-21 23:56:00,63.0,62.4,29.83,North,6,0.0,0.0,98,0.00,OVC,,2.33,WeatherDisplay:10.37,2013-05-22 04:56:00,